Tallahassee, FL

9:05 AM EDT on September 21, 2017 (GMT -0400)
Tallahassee Regional

Weather History for KTLH - October, 2013

Change the Weather History Date:

Tuesday, October 15, 2013

  Actual Average Record
Temperature  
Mean Temperature 73 °F 70 °F  
Max Temperature 83 °F 82 °F 90 °F (1990)
Min Temperature 63 °F 58 °F 35 °F (1977)
Degree Days  
Heating Degree Days 0    
Month to date heating degree days 0  
Since 1 July heating degree days 0  
Cooling Degree Days 8    
Month to date cooling degree days 161  
Year to date cooling degree days 2666  
Growing Degree Days 22 (Base 50)    
Moisture  
Dew Point 62 °F    
Average Humidity 72    
Maximum Humidity 93    
Minimum Humidity 51    
Precipitation  
Precipitation 0.00 in 0.10 in 1.90 in (1993)
Month to date precipitation 0.81 1.68  
Year to date precipitation 57.27 50.28  
Sea Level Pressure  
Sea Level Pressure 30.03 in    
Wind  
Wind Speed 6 mph (NNE)    
Max Wind Speed 13 mph    
Max Gust Speed 26 mph    
Visibility 10 miles    
Events      
T = Trace of Precipitation, MM = Missing Value Source: NWS Daily Summary

Daily Weather History Graph

Daily Weather History Graph

Search for Another Location

Airport or City:

Trip Planner

Search our weather history database for the weather conditions in past years. The results will help you decide how hot, cold, wet, or windy it might be!

Date:

Astronomy

Oct. 15, 2013 Rise Set
Actual Time 7:39 AM EDT 7:05 PM EDT
Civil Twilight 7:15 AM EDT 7:30 PM EDT
Nautical Twilight 6:47 AM EDT 7:58 PM EDT
Astronomical Twilight 6:19 AM EDT 8:25 PM EDT
Moon 4:59 PM EDT (10/15) 4:15 AM EDT (10/15)
Length of Visible Light 12h 14m
Length of Day
11h 26m
Waxing Gibbous, 87% of the Moon is Illuminated
Oct 15
Waxing Gibbous
Oct 18
Full
Oct 26
Last Quarter
Nov 3
New
Nov 10
First Quarter

Hourly Weather History & Observations

Time (EDT) Temp. Heat Index Dew Point Humidity Pressure Visibility Wind Dir Wind Speed Gust Speed Precip Events Conditions
12:53 AM 66.0 °F - 61.0 °F 84% 30.06 in 10.0 mi Calm Calm - N/A   Clear
1:53 AM 66.0 °F - 61.0 °F 84% 30.05 in 10.0 mi Calm Calm - N/A   Clear
2:53 AM 64.9 °F - 61.0 °F 87% 30.05 in 10.0 mi North 3.5 mph - N/A   Clear
3:53 AM 64.9 °F - 61.0 °F 87% 30.04 in 10.0 mi NNW 3.5 mph - N/A   Clear
4:53 AM 64.0 °F - 61.0 °F 90% 30.04 in 10.0 mi Variable 5.8 mph - N/A   Clear
5:53 AM 64.9 °F - 62.1 °F 90% 30.04 in 10.0 mi Calm Calm - N/A   Clear
6:53 AM 66.0 °F - 62.1 °F 87% 30.04 in 10.0 mi NNE 5.8 mph - N/A   Clear
7:53 AM 66.0 °F - 62.1 °F 87% 30.06 in 10.0 mi NNE 4.6 mph - N/A   Clear
8:53 AM 69.1 °F - 62.1 °F 78% 30.06 in 10.0 mi NE 5.8 mph - N/A   Clear
9:53 AM 72.0 °F - 62.1 °F 71% 30.06 in 10.0 mi ENE 9.2 mph - N/A   Partly Cloudy
10:53 AM 75.0 °F - 63.0 °F 66% 30.06 in 10.0 mi NNE 5.8 mph - N/A   Partly Cloudy
11:53 AM 78.1 °F - 62.1 °F 58% 30.05 in 10.0 mi Variable 4.6 mph - N/A   Partly Cloudy
12:53 PM 80.1 °F 81.2 °F 62.1 °F 54% 30.03 in 10.0 mi NNE 4.6 mph - N/A   Scattered Clouds
1:53 PM 82.9 °F 83.7 °F 62.1 °F 49% 30.00 in 10.0 mi North 6.9 mph - N/A   Partly Cloudy
2:53 PM 82.0 °F 83.0 °F 62.1 °F 51% 29.98 in 10.0 mi NNE 5.8 mph - N/A   Scattered Clouds
3:53 PM 81.0 °F 81.9 °F 62.1 °F 52% 29.98 in 10.0 mi NE 8.1 mph - N/A   Mostly Cloudy
4:53 PM 82.0 °F 83.0 °F 62.1 °F 51% 29.97 in 10.0 mi North 8.1 mph - N/A   Partly Cloudy
5:53 PM 81.0 °F 81.9 °F 62.1 °F 52% 29.97 in 10.0 mi NE 6.9 mph - N/A   Mostly Cloudy
6:53 PM 79.0 °F - 62.1 °F 56% 29.98 in 10.0 mi NNE 4.6 mph - N/A   Mostly Cloudy
7:53 PM 77.0 °F - 62.1 °F 60% 29.99 in 10.0 mi ENE 6.9 mph - N/A   Overcast
8:53 PM 75.9 °F - 62.1 °F 62% 30.01 in 10.0 mi ENE 4.6 mph - N/A   Overcast
9:53 PM 73.9 °F - 62.1 °F 66% 30.02 in 10.0 mi ENE 6.9 mph - N/A   Mostly Cloudy
10:53 PM 73.9 °F - 61.0 °F 64% 30.04 in 10.0 mi NNE 4.6 mph - N/A   Overcast
11:53 PM 73.0 °F - 62.1 °F 68% 30.03 in 10.0 mi Calm Calm - N/A   Overcast